Voltar ao catálogo

STARLINK-30277

AtivoComunicaçõesVLEO
NORAD 57645·PAYLOAD·🇺🇸 United States

Lançado Aug 17, 2023 de Cape Canaveral Space Force Station

Loading…

Próximas Passagens (próximas 24 horas)

TLE

AtualizadoSource: CelesTrak SupGP

Época: Sep 14, 2026, 21:41 UTC

1 57645C 23122P   26257.90395833 -.00073690  00000+0 -26688-2 0  2574
2 57645  43.0031 321.8191 0001809 266.1057 141.4751 15.27617897    17

Acompanhe STARLINK-30277 em tempo real com AllMySat

Download on the App Store